Simultaneous Nadir Overpasses (SNOs) Predictions

Prediction of SNOs between NOAA-15 and METOP-C Satellite Orbit:

Table of predicted SNOs for the next 14.0 days since TLE Epoch: 5/3/2025
Index Date (NOAA-15) Time (NOAA-15) Lat,Lon (NOAA-15) SZA (NOAA-15 ) Date (METOP-C) Time (METOP-C) Lat,Lon (METOP-C) SZA (METOP-C ) Distance(km) Time Diff (sec)
1 05/10/2025 14:34:33 81.01, -1.52 65.19 05/10/2025 14:33:19 80.99, -1.44 65.15 2.15 74
2 05/10/2025 15:25:02 -81.01, 165.87 114.83 05/10/2025 15:24:00 -80.99, 165.89 114.86 1.60 62
3 05/10/2025 16:15:31 81.00, -26.66 65.18 05/10/2025 16:14:40 81.00, -26.54 65.17 2.01 51
4 05/10/2025 17:06:00 -81.00, 140.74 114.84 05/10/2025 17:05:21 -81.00, 140.79 114.85 0.84 39
5 05/10/2025 17:56:29 81.00, -51.79 65.16 05/10/2025 17:56:01 81.01, -51.64 65.18 3.24 28
6 05/10/2025 18:46:59 -81.01, 115.25 114.87 05/10/2025 18:46:43 -81.00, 115.32 114.88 2.24 16
7 05/10/2025 19:37:28 81.01, -77.29 65.13 05/10/2025 19:37:23 81.01, -77.11 65.15 3.19 5
8 05/10/2025 20:27:57 -81.01, 90.11 114.88 05/10/2025 20:28:04 -81.01, 90.22 114.87 1.76 7
9 05/10/2025 21:18:26 81.00,-102.43 65.12 05/10/2025 21:18:45 81.00,-102.58 65.11 2.59 19
10 05/10/2025 22:08:55 -81.00, 64.98 114.89 05/10/2025 22:09:25 -81.02, 65.11 114.85 2.85 30
11 05/10/2025 22:59:24 81.00,-127.57 65.11 05/10/2025 23:00:06 81.01,-127.68 65.13 2.46 42
12 05/10/2025 23:49:54 -81.02, 39.49 114.92 05/10/2025 23:50:47 -81.01, 39.64 114.89 2.75 53
13 05/11/2025 00:40:23 81.01,-153.07 65.08 05/11/2025 00:41:28 81.01,-153.15 65.09 1.53 65



Historial Predications of SNOs between NOAA-15 and METOP-C
